Dewpoint
59 59 59 60 60 61 62 61 61 60 60 60 61 61 60 58 58 58 57 58 58 60 60 61 60 59 59 58 59 55 47 15 12 12 13 18 43 54 55 56 56 57 53 30 21 16 15 15 14 16 14 13 14 17 17 18 24 23 13 11 8 15 9 12 6 7 6 11 14 14 15 11 10 9 5 7 5 5 6 6 4 3 3 3 4 7 9 12
59 59 59 59 60 60 61 61 60 61 60 61 61 60 60 58 58 57 57 58 58 62 61 60 60 58 58 59 58 54 29 16 11 11 12 33 52 54 54 56 57 55 47 27 20 18 15 16 15 13 11 11 18 11 18 16 19 17 15 14 7 9 6 13 6 9 7 6 15 14 14 11 10 6 5 8 6 5 7 5 4 2 2 3 5 6 8 10
59 58 59 59 59 60 60 60 61 61 61 61 60 60 60 58 58 57 57 58 61 60 59 58 59 59 57 58 57 49 28 12 9 9 11 46 52 57 57 57 55 52 34 27 26 19 17 18 21 11 13 11 15 8 11 8 16 15 16 7 7 12 5 8 8 8 9 11 15 15 14 12 12 6 7 7 6 5 7 7 4 2 1 2 4 4 6 7
58 58 58 58 59 60 61 61 61 61 61 60 61 60 60 60 57 57 58 59 61 59 58 56 57 59 58 56 56 35 21 13 5 8 14 48 53 57 54 55 53 44 38 32 30 22 23 21 20 16 19 11 18 14 9 12 7 12 13 11 9 12 4 4 8 8 10 16 15 15 13 13 12 10 9 8 7 5 5 7 7 5 2 2 3 4 5 6
58 58 58 58 59 60 59 62 61 61 60 60 60 60 60 59 58 58 58 58 58 59 59 58 55 56 57 57 49 26 22 8 7 14 17 49 54 53 52 51 52 37 38 30 19 19 18 20 22 21 17 11 18 18 10 12 13 11 7 10 7 7 3 7 9 13 12 14 14 13 12 12 11 11 10 6 8 8 8 8 8 8 4 2 2 3 5 6
58 58 57 58 59 59 59 58 59 60 58 59 59 58 58 61 60 59 58 58 58 59 59 59 58 55 55 50 33 29 18 2 15 14 47 49 54 52 54 47 50 35 27 20 18 18 14 15 15 20 19 13 12 10 8 14 13 6 6 5 6 5 3 6 10 11 13 12 12 12 12 11 11 10 10 6 9 10 16 12 13 9 5 2 3 4 5 6
58 57 58 58 59 60 59 58 60 60 57 58 58 58 60 60 60 58 58 58 58 59 59 59 58 55 51 46 33 15 11 14 14 17 44 51 54 48 48 38 42 28 21 17 17 16 15 13 14 22 19 15 13 11 14 7 13 10 5 4 3 5 4 6 7 12 12 11 11 12 15 11 10 10 9 7 7 12 15 14 15 14 12 8 3 4 5 5
58 58 58 57 58 59 60 59 60 59 59 59 59 59 59 59 59 58 58 57 57 57 59 58 57 53 45 31 24 14 13 13 12 21 39 46 27 24 34 23 23 23 18 19 20 14 16 14 11 23 17 14 12 10 18 7 14 11 8 7 4 5 8 13 13 13 13 13 13 11 10 10 10 10 8 8 10 9 8 9 13 11 6 5 3 5 6 6
58 58 58 57 57 57 58 58 60 59 60 59 58 60 60 59 57 57 58 56 55 56 58 58 56 54 46 26 16 10 9 10 17 21 23 20 15 15 15 12 17 15 17 17 19 17 13 17 19 16 13 16 17 19 20 11 9 13 9 5 5 6 10 12 11 12 12 11 11 10 9 9 10 11 6 7 8 8 9 6 6 5 3 3 3 5 5 6
58 57 57 57 57 57 57 58 57 57 57 57 57 59 58 57 56 56 57 58 56 53 55 57 56 52 30 21 20 8 10 14 18 19 20 18 15 14 14 13 12 15 14 14 16 17 13 14 9 14 17 17 19 18 20 18 10 17 13 8 4 6 8 7 10 12 12 11 10 8 7 9 8 11 6 9 8 13 5 5 5 3 3 3 3 4 5 6
58 58 57 57 57 57 57 57 57 56 56 57 57 57 56 55 55 56 57 57 57 55 50 47 49 30 18 17 13 8 15 15 20 17 20 18 16 14 13 14 13 12 14 15 15 17 18 16 17 21 25 15 18 17 18 16 15 10 11 14 12 12 7 8 11 11 11 10 10 8 7 7 6 10 7 9 9 8 4 4 4 3 2 2 3 3 4 6
58 57 57 56 57 57 57 57 56 55 56 56 55 55 56 55 55 56 57 56 57 57 57 56 48 18 15 13 12 11 14 16 19 17 19 18 17 20 19 19 14 14 15 14 15 16 21 20 24 24 16 21 15 19 16 22 12 12 16 9 10 14 6 6 6 10 9 8 8 6 6 5 5 6 8 10 8 6 3 3 3 3 2 2 2 3 4 5
57 57 56 56 56 56 56 55 55 56 56 55 55 55 55 55 56 56 56 56 56 56 55 52 39 31 28 14 13 15 17 18 15 16 15 19 17 17 18 18 16 16 15 15 16 19 28 27 19 17 27 18 17 11 18 19 19 18 15 12 12 16 11 7 11 8 8 8 8 7 5 6 6 6 8 7 6 4 3 2 2 2 2 2 2 3 3 4
57 56 56 56 56 56 56 56 56 56 56 55 55 55 54 55 56 56 56 54 57 56 53 50 28 24 25 12 15 17 23 19 15 14 15 20 17 15 17 17 16 17 18 17 19 23 22 20 18 21 28 22 17 25 17 19 19 8 14 19 9 8 13 7 11 9 6 9 7 11 5 4 6 7 9 7 5 3 2 2 1 1 1 1 2 2 2 3
57 56 55 55 56 56 57 57 57 56 56 57 55 55 54 54 55 55 55 53 55 56 51 45 27 26 19 14 14 19 46 16 14 14 16 18 17 16 16 18 15 17 17 18 18 19 20 24 17 17 14 21 25 18 17 18 18 19 9 10 16 7 14 13 20 8 4 9 10 11 8 6 6 7 8 7 5 3 2 2 1 1 1 1 1 1 2 2
56 56 55 55 55 56 56 57 56 56 55 54 54 54 54 55 55 53 53 53 53 54 40 27 29 17 14 12 10 28 14 13 13 15 15 20 18 17 18 17 17 15 15 15 17 17 20 17 15 16 17 17 17 14 15 14 12 16 9 4 6 10 11 11 11 13 13 9 12 9 4 4 4 7 6 3 4 3 3 3 2 1 1 1 1 1 1 2
56 56 56 55 56 56 56 56 56 55 54 54 54 54 55 54 53 52 52 48 39 33 20 21 24 32 14 12 13 11 11 13 15 15 15 20 19 19 17 15 14 17 19 16 15 17 17 16 20 15 20 14 19 18 7 10 12 13 14 7 10 5 9 11 14 12 13 9 9 11 9 7 6 7 8 2 3 2 2 3 3 2 1 1 1 1 1 1
56 57 57 56 55 55 56 55 56 55 55 54 53 53 45 53 48 43 39 40 41 33 34 32 31 21 8 11 7 11 15 16 16 15 16 19 22 24 24 23 22 17 18 13 11 13 17 16 19 10 15 16 14 16 14 4 6 5 6 7 12 11 10 9 9 12 11 16 10 10 9 9 8 9 9 8 2 2 2 3 3 2 1 1 1 1 2 0
57 57 56 55 55 55 56 56 56 55 54 51 55 55 53 49 39 27 31 29 29 22 20 20 21 17 13 8 9 15 17 17 17 20 20 20 21 24 25 23 20 17 18 11 12 17 19 17 19 13 8 12 10 13 16 9 9 6 5 7 9 8 10 9 11 13 12 11 12 10 9 7 7 8 7 10 2 1 2 2 2 1 1 1 0 0 1 3
57 57 56 56 55 56 55 56 56 55 53 42 39 38 38 28 29 20 26 28 19 18 18 19 20 19 15 15 15 16 18 17 16 18 21 21 22 19 14 20 23 20 22 14 17 13 20 15 9 7 14 16 12 15 12 8 8 11 12 9 9 9 10 11 12 14 19 13 9 9 10 9 9 9 9 9 6 1 1 1 1 1 1 1 0 0 1 0
57 56 55 55 55 56 56 56 56 56 54 42 40 34 21 25 13 13 17 22 22 26 20 22 20 13 14 15 16 16 11 11 17 17 20 24 21 16 13 15 20 18 14 20 15 20 22 13 8 15 14 15 13 13 14 15 13 13 11 11 12 11 9 8 7 11 17 10 12 10 9 8 8 8 9 10 7 5 2 1 1 1 1 1 1 1 2 1
56 55 55 55 55 56 56 56 56 53 52 43 38 30 35 32 24 19 21 11 21 27 25 22 19 16 17 15 17 15 12 10 11 15 20 22 19 12 18 14 17 11 13 21 16 17 13 9 9 12 14 15 15 14 16 14 15 13 9 9 5 11 10 11 13 15 13 13 9 12 9 8 8 9 9 9 8 8 6 3 3 3 2 1 1 1 2 3
55 55 55 55 56 56 56 55 54 53 39 38 36 35 35 39 43 41 26 22 19 24 23 22 19 16 16 18 18 15 13 11 12 14 20 23 19 19 20 16 18 19 18 17 12 13 10 12 15 14 15 13 15 15 17 16 16 8 8 6 8 11 5 8 14 13 14 10 9 10 10 9 9 6 6 9 9 8 6 4 3 4 2 2 2 2 3 2
54 54 55 55 55 56 55 54 51 41 38 36 35 33 36 42 39 32 26 15 16 20 24 22 19 18 17 18 21 16 15 15 17 17 22 23 20 21 21 19 17 17 14 18 17 13 9 11 18 17 15 11 9 11 9 9 7 14 8 7 7 6 5 6 6 10 13 15 15 13 11 8 5 2 3 6 9 12 11 10 9 6 5 4 4 3 4 3
54 55 54 55 54 55 55 50 45 36 39 33 37 40 43 42 40 31 25 20 18 20 27 25 23 19 19 24 25 19 16 19 19 19 21 23 24 22 21 23 19 13 15 19 17 16 8 12 17 12 13 12 10 9 10 8 10 9 11 8 8 6 6 7 8 10 6 3 9 7 6 5 5 5 3 3 5 4 9 11 11 12 10 7 5 4 5 6
54 55 55 55 55 54 53 37 36 42 34 32 34 41 43 41 39 31 21 16 5 19 19 16 22 16 20 19 19 22 19 19 18 18 32 22 30 21 21 18 19 13 17 19 13 13 13 15 14 14 11 13 11 7 9 9 6 7 11 12 9 9 9 9 8 7 4 1 4 8 3 6 6 4 5 4 4 4 5 7 7 10 11 11 9 8 6 5
54 55 55 56 55 52 31 30 28 33 22 22 44 43 41 43 41 23 5 12 4 21 14 22 18 18 24 25 21 21 11 13 18 22 20 25 21 27 17 17 20 23 23 20 18 10 17 14 10 10 9 11 8 7 8 12 9 11 11 11 10 11 9 8 9 7 7 12 12 3 3 1 5 5 6 4 4 4 5 6 10 8 8 9 10 10 9 8
54 54 55 55 53 47 26 37 40 37 22 36 42 42 41 40 38 28 16 -17 -17 21 15 17 21 25 24 28 20 15 14 20 14 14 24 27 27 23 21 18 17 19 21 16 6 17 11 10 11 9 8 7 6 7 8 10 7 10 13 13 11 10 9 11 10 9 9 4 6 4 4 2 -0 3 4 4 4 5 5 6 9 9 9 9 9 10 10 10
53 54 55 54 53 50 40 35 33 30 40 44 40 41 41 35 26 17 4 -14 1 19 26 21 27 18 22 22 17 22 23 22 14 19 26 22 20 19 18 19 22 22 20 17 16 17 16 12 15 10 6 8 9 8 11 10 6 12 15 14 13 15 15 12 10 8 4 3 0 3 3 1 6 7 7 5 3 4 8 10 13 12 11 10 11 10 10 10
52 53 55 54 44 39 41 37 41 44 43 40 41 40 34 32 25 18 -6 -15 19 5 23 23 19 20 20 16 14 20 17 18 25 24 20 16 14 23 24 25 21 18 15 21 17 17 16 27 24 13 9 10 11 12 13 11 12 17 12 7 12 7 9 9 7 4 1 -4 3 5 4 5 3 6 6 5 6 10 11 9 10 11 11 11 12 11 12 11
51 52 53 51 35 35 33 26 34 44 41 43 42 34 30 22 18 6 -13 11 18 17 21 19 17 25 19 17 13 18 18 19 20 20 13 21 15 22 22 15 24 17 18 18 14 18 18 18 16 20 24 15 11 11 19 17 16 9 6 6 10 6 6 4 6 3 -1 0 4 5 2 4 -1 5 6 9 12 10 11 11 11 10 11 12 12 12 11 11
51 49 49 47 45 42 25 27 42 45 42 39 33 27 20 9 6 -3 1 19 9 17 9 12 20 20 19 18 15 17 13 16 20 20 14 16 13 14 12 12 12 4 11 11 11 15 12 15 17 16 28 13 11 8 12 16 14 10 7 7 6 4 3 -3 2 2 -5 0 3 3 4 5 3 4 6 8 9 13 14 11 11 12 12 12 11 11 12 11
50 50 48 46 44 39 39 42 42 44 41 37 30 26 18 13 -5 10 3 9 2 19 17 19 16 19 18 11 12 15 20 11 16 20 19 18 12 10 16 16 16 8 3 10 11 11 14 16 15 15 15 22 10 8 8 8 9 7 5 4 2 2 -5 -4 -1 -4 -2 6 7 3 3 4 6 7 12 8 9 12 13 16 14 13 12 11 11 11 10 11
51 45 38 43 43 41 42 41 41 42 35 35 20 18 17 -2 3 24 6 12 4 22 23 20 19 14 16 7 10 18 10 16 18 17 16 12 9 6 9 13 17 15 13 12 8 7 2 7 8 14 11 12 9 8 7 8 7 6 5 5 1 2 -0 -2 -4 -3 1 6 8 6 -2 2 0 14 13 11 14 13 14 14 13 14 14 13 13 12 12 12
50 45 41 40 38 39 41 39 41 39 35 29 20 20 5 9 7 3 7 13 13 21 16 22 14 9 7 15 15 19 12 9 18 15 14 8 6 6 5 6 10 15 15 7 7 5 7 8 9 15 13 11 6 12 12 8 7 8 6 9 5 -0 7 0 -4 -5 -5 -1 4 -3 4 5 9 9 10 10 9 10 13 13 14 12 12 11 10 10 10 10
46 41 39 33 36 34 41 41 39 37 29 21 16 5 6 8 -1 9 7 17 20 14 16 13 13 6 11 12 12 16 20 11 13 12 11 10 9 7 9 9 11 15 12 5 6 3 8 5 14 12 11 8 8 14 11 10 3 7 6 0 3 10 5 -3 4 1 -1 -6 1 -6 4 6 8 8 9 12 11 12 12 12 10 9 8 8 7 7 8 8
37 36 23 32 30 33 39 39 39 32 25 20 17 3 13 12 13 12 30 16 14 17 5 0 12 4 1 2 10 12 16 15 12 7 4 12 8 10 13 14 14 15 15 11 5 10 2 6 14 9 9 13 14 14 13 13 12 8 0 4 7 6 8 4 -2 -7 -12 -3 2 1 3 6 5 7 13 11 10 11 12 12 12 11 11 9 8 8 8 7
36 34 28 29 29 39 39 39 34 30 29 20 4 28 17 12 18 22 25 22 20 14 5 -0 9 7 6 7 9 10 11 10 17 6 5 11 4 12 14 13 17 16 16 17 9 6 15 6 12 13 12 14 14 11 10 9 15 7 6 8 6 -1 2 5 -3 -1 -2 -3 -1 2 1 3 5 10 10 9 10 10 10 11 12 11 11 11 10 10 10 9
36 32 25 25 36 40 40 37 32 30 24 12 8 8 21 15 24 25 26 25 24 13 5 7 -1 6 9 7 8 9 10 7 12 10 3 5 5 9 11 15 15 19 19 16 11 13 12 2 9 13 12 12 10 12 8 7 7 9 10 7 8 8 -0 -0 0 0 2 2 -0 3 -3 6 8 10 11 9 11 11 11 11 11 11 11 11 11 11 11 10
32 26 26 33 39 39 39 38 32 25 19 12 14 13 20 16 23 25 25 25 21 12 11 9 12 8 11 14 10 4 10 10 10 11 3 5 8 11 11 15 14 18 18 15 12 16 10 10 2 10 12 12 9 9 9 7 4 4 4 2 4 -2 6 6 -2 2 3 -6 -8 -6 2 6 8 11 9 12 12 11 11 11 11 11 11 11 11 11 11 11
33 29 28 35 39 39 35 28 22 16 14 17 21 17 23 19 25 25 27 27 25 25 20 13 13 11 10 10 7 11 12 13 10 8 8 8 9 3 16 15 16 14 16 11 11 12 5 9 7 10 8 9 9 12 11 8 8 8 11 8 10 4 1 1 6 -3 -4 -0 -2 -8 5 6 9 12 14 11 11 10 11 11 11 10 10 10 10 11 11 11
19 10 21 32 39 34 29 17 15 23 18 17 13 23 26 32 23 23 25 26 23 18 21 19 18 13 16 11 9 13 13 11 11 9 9 6 11 9 19 17 17 16 14 9 9 13 12 9 8 7 8 8 9 9 14 10 9 9 9 10 9 4 5 -1 -1 1 -2 -0 -7 -6 -3 5 11 11 11 10 10 11 11 10 10 9 10 10 11 12 12 12
21 16 28 36 37 30 23 12 23 20 15 21 24 25 24 25 20 21 22 22 21 21 20 19 19 17 17 13 13 13 11 6 10 9 11 11 8 15 20 18 18 15 17 8 10 10 23 3 1 6 9 9 8 8 11 9 7 6 6 8 7 3 8 9 7 1 1 -4 -3 -7 -1 6 8 12 10 10 10 10 10 9 9 10 12 13 13 13 13 13
26 26 24 31 35 33 21 12 7 8 17 24 24 24 24 26 22 20 22 22 20 20 19 19 16 18 13 19 14 11 11 4 8 7 8 16 10 22 20 21 20 14 9 11 11 15 4 11 7 2 4 5 6 8 10 11 6 5 4 7 6 2 -0 -3 -3 -6 1 3 6 2 4 7 9 10 10 9 9 10 11 12 13 13 13 13 13 13 13 14
24 24 26 30 31 24 17 22 13 8 15 20 19 20 21 21 21 21 22 20 23 20 19 17 17 19 19 19 16 17 15 7 6 9 10 13 11 21 21 17 18 15 21 23 21 16 6 9 4 1 -1 3 3 4 6 3 6 8 5 6 6 4 2 2 1 -3 -0 2 3 -3 3 7 9 10 10 10 11 11 12 13 13 13 13 13 13 14 14 14
20 5 22 23 24 26 26 25 23 20 17 15 12 14 20 18 20 23 23 23 23 22 21 20 20 20 17 14 14 14 14 15 8 6 6 6 9 18 22 17 19 19 26 28 23 11 3 8 9 8 8 7 10 10 13 16 9 7 6 4 4 3 4 -0 3 -1 5 1 5 6 7 8 8 9 10 11 12 12 13 12 12 12 13 14 14 14 15 16
22 8 17 11 21 20 19 22 22 17 12 19 7 13 10 16 17 14 22 21 21 20 20 20 19 14 14 14 12 12 15 12 13 10 7 5 7 17 18 23 21 26 30 25 20 7 1 2 7 8 10 11 10 9 10 11 8 8 7 9 6 4 4 5 6 6 6 2 5 8 8 8 8 9 11 12 12 12 12 12 12 13 13 14 14 15 20 16
7 13 25 25 13 14 12 11 23 21 19 15 9 16 13 16 15 9 15 20 23 22 16 13 19 18 15 15 10 4 9 13 9 4 6 6 12 15 18 18 20 23 21 15 13 8 3 2 2 3 6 9 10 9 9 9 9 9 9 10 9 6 4 5 6 9 7 6 7 9 9 9 10 11 12 12 12 12 12 12 13 13 14 14 15 15 16 16
21 21 23 24 17 19 17 17 23 22 21 17 22 17 12 16 13 14 15 18 18 19 17 9 11 17 17 18 10 7 13 3 5 7 4 4 7 8 7 10 21 20 14 12 10 1 5 5 2 3 7 9 10 11 11 11 11 10 10 11 11 9 7 8 9 9 8 8 9 9 9 9 10 10 11 12 12 12 12 13 14 14 14 16 16 16 17 17
19 14 10 22 24 22 21 21 22 19 15 21 12 15 15 17 14 17 17 16 9 14 20 13 15 18 19 19 14 8 12 8 6 6 8 7 3 9 5 12 12 21 18 12 7 8 7 6 12 4 1 9 9 9 7 10 9 9 9 9 9 10 10 9 8 9 8 9 9 9 9 10 11 12 12 12 13 14 14 14 14 15 16 17 17 17 18 18
27 22 23 18 14 17 21 20 20 19 14 15 11 13 19 19 16 18 15 18 13 13 18 15 17 22 21 19 18 16 17 16 13 13 14 8 9 15 8 6 20 15 14 10 5 7 5 5 -1 -1 2 8 8 8 8 8 9 8 8 9 10 9 6 8 7 10 7 9 9 6 7 11 13 14 14 14 14 14 14 14 15 16 17 18 18 18 18 18
28 28 26 20 6 20 19 18 19 15 8 18 18 16 18 18 21 19 15 19 23 22 21 20 21 18 18 19 18 19 20 20 21 21 20 13 19 20 16 14 19 18 14 10 6 5 3 -0 2 0 3 8 8 8 7 8 9 6 4 8 9 10 10 10 11 11 11 10 6 10 12 13 13 14 13 13 14 14 14 15 16 17 18 18 18 18 19 20